User: anonymous   Login
Location: Unspecified
(0.0000°N, 0.0000°E)
Time: 05:39:11
(UTC+00:00)
Language:

Radcal - Orbit

View from above orbital plane
View from above orbital plane
View from above satellite
View from above satellite

Ground track
Ground track

The orbit data is extracted from the following two-line orbital elements,

1 22698U 93041A   18349.13132804  .00000043  00000-0  12199-4 0  9994
2 22698  89.5667 205.8165 0090138 147.1652 213.5187 14.23386620322485
Epoch (UTC): 15 December 2018 03:09:06
Eccentricity: 0.0090138
inclination: 89.5667°
perigee height: 749 km
apogee height: 879 km
right ascension of ascending node: 205.8165°
argument of perigee: 147.1652°
revolutions per day: 14.23386620
mean anomaly at epoch: 213.5187°
orbit number at epoch: 32248

The dashed part of the orbit path shows where the satellite is in the earth's shadow,  

DLR